• Em Portugal
  • Lista de países
  • Para 7 dias
  • Temperatura da água
  • Mapas de satélite
  • Mapa do tempo
  • Widgets de tempo
  • user-avatar
    Iniciar Sessão

    Previsão horária em Khulna

    Hoje, 20 Julho, Sexta-feira

    Tempo Temperatura Precipitação Vento Pressão Humidade
    00:00 +32°C° 0 mm 1 m/s 747 mmHg 77%
    01:00 +32°C° 0 mm 1 m/s 747 mmHg 78%
    02:00 +32°C° 0 mm 1 m/s 746 mmHg 78%
    03:00 +32°C° 0 mm 1 m/s 746 mmHg 79%
    04:00 +31°C° 0 mm 1 m/s 746 mmHg 79%
    05:00 +31°C° 0 mm 1 m/s 746 mmHg 80%
    06:00 +31°C° 0 mm 1 m/s 746 mmHg 80%
    07:00 +34°C° 0 mm 2 m/s 746 mmHg 74%
    08:00 +35°C° 0 mm 3 m/s 746 mmHg 68%
    09:00 +36°C° 0 mm 3 m/s 747 mmHg 62%
    10:00 +37°C° 1 mm 4 m/s 746 mmHg 61%
    11:00 +37°C° 1 mm 4 m/s 746 mmHg 59%
    12:00 +38°C° 0 mm 6 m/s 746 mmHg 59%
    13:00 +38°C° 0,9 mm 6 m/s 746 mmHg 60%
    14:00 +38°C° 0,9 mm 6 m/s 745 mmHg 60%
    15:00 +38°C° 0,9 mm 6 m/s 745 mmHg 60%
    16:00 +36°C° 0 mm 6 m/s 745 mmHg 64%
    17:00 +35°C° 0 mm 6 m/s 745 mmHg 68%
    18:00 +34°C° 0 mm 4 m/s 745 mmHg 73%
    19:00 +33°C° 0,2 mm 5 m/s 745 mmHg 75%
    20:00 +33°C° 0,2 mm 5 m/s 746 mmHg 78%
    21:00 +32°C° 0,2 mm 5 m/s 746 mmHg 81%
    22:00 +32°C° 0,2 mm 6 m/s 746 mmHg 81%
    23:00 +30°C° 0,2 mm 6 m/s 746 mmHg 82%

    Amanhã, 21 Julho, Sábado

    Tempo Temperatura Precipitação Vento Pressão Humidade
    00:00 +30°C° 0,2 mm 6 m/s 746 mmHg 82%
    01:00 +30°C° 0,1 mm 6 m/s 746 mmHg 82%
    02:00 +30°C° 0,1 mm 6 m/s 745 mmHg 82%
    03:00 +30°C° 0,1 mm 6 m/s 745 mmHg 81%
    04:00 +30°C° 0,3 mm 7 m/s 745 mmHg 82%
    05:00 +30°C° 0,3 mm 7 m/s 745 mmHg 82%
    06:00 +30°C° 0,3 mm 7 m/s 745 mmHg 82%
    07:00 +30°C° 1 mm 7 m/s 745 mmHg 82%
    08:00 +31°C° 1 mm 8 m/s 746 mmHg 82%
    09:00 +31°C° 1 mm 8 m/s 746 mmHg 83%
    10:00 +32°C° 0,9 mm 8 m/s 746 mmHg 80%
    11:00 +33°C° 0,9 mm 9 m/s 746 mmHg 77%
    12:00 +33°C° 0,9 mm 9 m/s 746 mmHg 74%
    13:00 +34°C° 0,6 mm 9 m/s 745 mmHg 71%
    14:00 +35°C° 0,6 mm 9 m/s 745 mmHg 69%
    15:00 +35°C° 0,6 mm 9 m/s 744 mmHg 66%
    16:00 +34°C° 0,6 mm 9 m/s 744 mmHg 72%
    17:00 +33°C° 0,6 mm 8 m/s 744 mmHg 77%
    18:00 +32°C° 0,6 mm 8 m/s 744 mmHg 82%
    19:00 +30°C° 0,4 mm 7 m/s 745 mmHg 83%
    20:00 +30°C° 0,4 mm 7 m/s 745 mmHg 84%
    21:00 +30°C° 0,4 mm 6 m/s 746 mmHg 85%
    22:00 +30°C° 0,1 mm 6 m/s 746 mmHg 86%
    23:00 +30°C° 0,1 mm 6 m/s 746 mmHg 86%

    Depois de amanhã, 22 Julho, Domingo

    Tempo Temperatura Precipitação Vento Pressão Humidade
    00:00 +30°C° 0,1 mm 6 m/s 746 mmHg 87%
    01:00 +29°C° 0,3 mm 5 m/s 746 mmHg 87%
    02:00 +29°C° 0,3 mm 5 m/s 746 mmHg 87%
    03:00 +29°C° 0,3 mm 5 m/s 746 mmHg 87%
    04:00 +29°C° 0,4 mm 5 m/s 746 mmHg 88%
    05:00 +29°C° 0,4 mm 5 m/s 746 mmHg 88%
    06:00 +29°C° 0,4 mm 5 m/s 746 mmHg 88%
    07:00 +30°C° 1 mm 5 m/s 747 mmHg 85%
    08:00 +32°C° 1 mm 6 m/s 747 mmHg 81%
    09:00 +33°C° 1 mm 6 m/s 747 mmHg 77%
    10:00 +33°C° 1,6 mm 6 m/s 747 mmHg 77%
    11:00 +33°C° 1,6 mm 6 m/s 747 mmHg 77%
    12:00 +33°C° 1,6 mm 6 m/s 747 mmHg 76%
    13:00 +34°C° 1,4 mm 6 m/s 747 mmHg 75%
    14:00 +34°C° 1,4 mm 6 m/s 746 mmHg 73%
    15:00 +35°C° 1,4 mm 7 m/s 746 mmHg 72%
    16:00 +34°C° 0,4 mm 6 m/s 746 mmHg 73%
    17:00 +34°C° 0,4 mm 5 m/s 746 mmHg 74%
    18:00 +33°C° 0,4 mm 5 m/s 746 mmHg 76%
    19:00 +32°C° 0 mm 4 m/s 747 mmHg 79%
    20:00 +32°C° 0 mm 4 m/s 747 mmHg 82%
    21:00 +30°C° 0 mm 4 m/s 748 mmHg 85%
    22:00 +30°C° 0,2 mm 4 m/s 748 mmHg 86%
    23:00 +30°C° 0,2 mm 4 m/s 748 mmHg 87%

    23 Julho, Segunda-feira

    Tempo Temperatura Precipitação Vento Pressão Humidade
    00:00 +29°C° 0,2 mm 4 m/s 748 mmHg 87%
    01:00 +29°C° 0,2 mm 3 m/s 748 mmHg 87%
    02:00 +29°C° 0,2 mm 3 m/s 747 mmHg 87%
    03:00 +29°C° 0,2 mm 3 m/s 747 mmHg 88%
    04:00 +29°C° 0 mm 3 m/s 747 mmHg 88%
    05:00 +29°C° 0 mm 3 m/s 747 mmHg 88%
    06:00 +29°C° 0 mm 3 m/s 747 mmHg 88%
    07:00 +30°C° 0,1 mm 3 m/s 748 mmHg 83%
    08:00 +31°C° 0,1 mm 3 m/s 748 mmHg 79%
    09:00 +33°C° 0,1 mm 4 m/s 748 mmHg 74%
    10:00 +34°C° 1,3 mm 4 m/s 748 mmHg 72%
    11:00 +34°C° 1,3 mm 4 m/s 748 mmHg 70%
    12:00 +35°C° 1,3 mm 4 m/s 748 mmHg 68%
    13:00 +35°C° 1,8 mm 5 m/s 748 mmHg 68%
    14:00 +35°C° 1,8 mm 5 m/s 747 mmHg 68%
    15:00 +35°C° 1,8 mm 6 m/s 746 mmHg 68%
    16:00 +34°C° 0,6 mm 5 m/s 746 mmHg 71%
    17:00 +33°C° 0,6 mm 4 m/s 747 mmHg 73%
    18:00 +33°C° 0,6 mm 4 m/s 747 mmHg 76%
    19:00 +32°C° 0 mm 4 m/s 747 mmHg 78%
    20:00 +32°C° 0 mm 4 m/s 748 mmHg 81%
    21:00 +30°C° 0 mm 4 m/s 749 mmHg 83%
    22:00 +30°C° 0,2 mm 4 m/s 749 mmHg 84%
    23:00 +30°C° 0,2 mm 4 m/s 749 mmHg 85%

    24 Julho, Terça-feira

    Tempo Temperatura Precipitação Vento Pressão Humidade
    00:00 +29°C° 0,2 mm 4 m/s 749 mmHg 86%
    01:00 +29°C° 0,6 mm 4 m/s 749 mmHg 86%
    02:00 +29°C° 0,6 mm 3 m/s 748 mmHg 87%
    03:00 +29°C° 0,6 mm 3 m/s 748 mmHg 87%
    04:00 +29°C° 0,5 mm 3 m/s 748 mmHg 87%
    05:00 +29°C° 0,5 mm 3 m/s 748 mmHg 88%
    06:00 +29°C° 0,5 mm 3 m/s 749 mmHg 88%
    07:00 +30°C° 0,2 mm 3 m/s 749 mmHg 83%
    08:00 +31°C° 0,2 mm 3 m/s 750 mmHg 79%
    09:00 +33°C° 0,2 mm 3 m/s 750 mmHg 74%
    10:00 +33°C° 0,2 mm 3 m/s 750 mmHg 71%
    11:00 +34°C° 0,2 mm 3 m/s 750 mmHg 67%
    12:00 +35°C° 0,2 mm 3 m/s 749 mmHg 64%
    13:00 +35°C° 0,3 mm 3 m/s 749 mmHg 63%
    14:00 +35°C° 0,3 mm 4 m/s 748 mmHg 63%
    15:00 +35°C° 0,3 mm 4 m/s 748 mmHg 63%
    16:00 +34°C° 1,2 mm 4 m/s 748 mmHg 67%
    17:00 +34°C° 1,2 mm 4 m/s 748 mmHg 72%
    18:00 +33°C° 1,2 mm 3 m/s 748 mmHg 76%
    19:00 +31°C° 0,1 mm 3 m/s 749 mmHg 78%
    20:00 +31°C° 0,1 mm 3 m/s 749 mmHg 80%
    21:00 +30°C° 0,1 mm 3 m/s 750 mmHg 81%
    22:00 +30°C° 0,5 mm 3 m/s 750 mmHg 83%
    23:00 +30°C° 0,5 mm 3 m/s 749 mmHg 84%

    25 Julho, Quarta-feira

    Tempo Temperatura Precipitação Vento Pressão Humidade
    00:00 +29°C° 0,5 mm 3 m/s 749 mmHg 85%
    01:00 +29°C° 1,4 mm 3 m/s 749 mmHg 85%
    02:00 +29°C° 1,4 mm 3 m/s 749 mmHg 85%
    03:00 +29°C° 1,4 mm 3 m/s 748 mmHg 84%
    04:00 +29°C° 0,5 mm 3 m/s 748 mmHg 85%
    05:00 +29°C° 0,5 mm 3 m/s 748 mmHg 85%
    06:00 +29°C° 0,5 mm 3 m/s 749 mmHg 85%
    07:00 +30°C° 0,5 mm 3 m/s 749 mmHg 81%
    08:00 +31°C° 0,5 mm 3 m/s 749 mmHg 76%
    09:00 +34°C° 0,5 mm 3 m/s 750 mmHg 71%
    10:00 +34°C° 0,9 mm 3 m/s 749 mmHg 68%
    11:00 +35°C° 0,9 mm 3 m/s 749 mmHg 65%
    12:00 +36°C° 0,9 mm 3 m/s 749 mmHg 62%
    13:00 +36°C° 0,9 mm 3 m/s 748 mmHg 62%
    14:00 +36°C° 0,9 mm 3 m/s 748 mmHg 63%
    15:00 +36°C° 0,9 mm 3 m/s 747 mmHg 63%
    16:00 +35°C° 1,2 mm 3 m/s 747 mmHg 67%
    17:00 +34°C° 1,2 mm 3 m/s 747 mmHg 72%
    18:00 +34°C° 1,2 mm 3 m/s 747 mmHg 76%
    19:00 +33°C° 0,9 mm 3 m/s 747 mmHg 79%
    20:00 +31°C° 0,9 mm 3 m/s 748 mmHg 81%
    21:00 +31°C° 0,9 mm 3 m/s 748 mmHg 83%
    22:00 +30°C° 0,8 mm 3 m/s 748 mmHg 84%
    23:00 +30°C° 0,8 mm 2 m/s 748 mmHg 85%
    Mostrar mais